DLH204 EBOS-EDDN

Flight info

Callsign DLH204
Flight time N/A
Altitude 35000
Route FERDI UL607 MATUG DCT GUBAX DCT BOMBI Z723 RITUP/N0400F230 Z723 KOMIB T193 ERTES T194 DODAS DODAS1V
Aircraft A320/M-SDE3FGHIRWY/LB1

Departure

Time 2026-05-04 13:38
Airport Ostend-Bruges International Airport (EBOS)

Arrival

Time N/A
Airport Nuremberg Airport (EDDN)
Time Latitude Longitude Altitude Speed Heading
2026-05-04 13:05 51.20379 2.87230 23 ft 0 kts 350°
2026-05-04 13:25 51.20366 2.87234 24 ft 4 kts 347°
2026-05-04 13:25 51.20339 2.87244 25 ft 4 kts 349°
2026-05-04 13:25 51.20313 2.87250 25 ft 4 kts 355°
2026-05-04 13:25 51.20290 2.87251 24 ft 1 kts
2026-05-04 13:26 51.20286 2.87251 23 ft 0 kts
2026-05-04 13:31 51.20288 2.87251 24 ft 0 kts 360°
2026-05-04 13:32 51.20288 2.87235 40 ft 4 kts 266°
2026-05-04 13:32 51.20273 2.87190 20 ft 11 kts 250°
2026-05-04 13:33 51.20156 2.87155 23 ft 13 kts 161°
2026-05-04 13:33 51.20096 2.87087 26 ft 10 kts 253°
2026-05-04 13:33 51.20074 2.86936 23 ft 18 kts 256°
2026-05-04 13:33 51.20038 2.86716 24 ft 22 kts 257°
2026-05-04 13:34 51.19999 2.86456 23 ft 27 kts 255°
2026-05-04 13:34 51.19961 2.86192 23 ft 24 kts 252°
2026-05-04 13:34 51.19932 2.85979 23 ft 16 kts 250°
2026-05-04 13:34 51.19896 2.85799 23 ft 19 kts 258°
2026-05-04 13:35 51.19873 2.85603 23 ft 20 kts 258°
2026-05-04 13:35 51.19842 2.85379 23 ft 12 kts 256°
2026-05-04 13:35 51.19776 2.85273 25 ft 14 kts 203°
2026-05-04 13:36 51.19755 2.85266 23 ft 0 kts 187°
2026-05-04 13:36 51.19724 2.85265 22 ft 18 kts 175°
2026-05-04 13:37 51.19666 2.85350 22 ft 0 kts 76°
2026-05-04 13:37 51.19667 2.85354 22 ft 3 kts 76°
2026-05-04 13:37 51.19725 2.85716 22 ft 71 kts 75°
2026-05-04 13:37 51.19827 2.86381 24 ft 114 kts 77°
2026-05-04 13:38 51.20177 2.88497 91 ft 172 kts 73°
2026-05-04 13:38 51.20491 2.90387 562 ft 180 kts 74°
2026-05-04 13:38 51.20684 2.91699 1022 ft 179 kts 75°
2026-05-04 13:38 51.21068 2.94391 1667 ft 202 kts 75°
2026-05-04 13:39 51.21286 2.95918 1913 ft 217 kts 76°
2026-05-04 13:39 51.21639 2.98367 2368 ft 236 kts 77°
2026-05-04 13:39 51.21561 3.01844 3349 ft 247 kts 111°
2026-05-04 13:39 51.20596 3.04229 3943 ft 263 kts 129°
2026-05-04 13:40 51.19820 3.05782 4537 ft 267 kts 128°
2026-05-04 13:40 51.18664 3.08113 5438 ft 270 kts 128°
2026-05-04 13:40 51.17491 3.10490 6065 ft 273 kts 128°
2026-05-04 13:40 51.16317 3.12879 6949 ft 276 kts 128°
2026-05-04 13:41 51.15130 3.15300 7787 ft 279 kts 128°
2026-05-04 13:41 51.13928 3.17760 8599 ft 283 kts 128°
2026-05-04 13:41 51.12708 3.20255 9418 ft 287 kts 128°
2026-05-04 13:42 51.10170 3.25439 10455 ft 316 kts 128°
2026-05-04 13:42 51.08767 3.28291 10680 ft 338 kts 128°
2026-05-04 13:42 51.07316 3.31241 11242 ft 347 kts 129°
2026-05-04 13:42 51.05823 3.34277 11981 ft 351 kts 129°
2026-05-04 13:43 51.04292 3.37382 12759 ft 354 kts 129°
2026-05-04 13:43 51.02784 3.40444 13487 ft 358 kts 129°
2026-05-04 13:43 51.01241 3.43567 14141 ft 362 kts 129°
2026-05-04 13:43 50.99681 3.46725 14769 ft 365 kts 129°
2026-05-04 13:44 50.98105 3.49913 15386 ft 368 kts 129°
2026-05-04 13:44 50.96517 3.53118 15998 ft 371 kts 129°
2026-05-04 13:44 50.94913 3.56348 16615 ft 375 kts 128°
2026-05-04 13:44 50.93292 3.59610 17223 ft 378 kts 128°
2026-05-04 13:45 50.91780 3.63034 17822 ft 381 kts 120°
2026-05-04 13:45 50.90669 3.66859 18402 ft 385 kts 109°
2026-05-04 13:45 50.89877 3.70925 18928 ft 388 kts 107°
2026-05-04 13:45 50.89092 3.75025 19448 ft 391 kts 108°
2026-05-04 13:46 50.88296 3.79161 19968 ft 395 kts 108°
2026-05-04 13:46 50.87488 3.83329 20488 ft 398 kts 108°
2026-05-04 13:46 50.86670 3.87538 21006 ft 402 kts 108°
2026-05-04 13:46 50.85842 3.91783 21511 ft 405 kts 109°
2026-05-04 13:47 50.85006 3.96060 22010 ft 408 kts 109°
2026-05-04 13:47 50.84165 4.00371 22497 ft 412 kts 109°
2026-05-04 13:47 50.83313 4.04726 22975 ft 415 kts 109°
2026-05-04 13:47 50.82452 4.09103 23438 ft 418 kts 109°
2026-05-04 13:48 50.81585 4.13510 23838 ft 421 kts 110°
2026-05-04 13:48 50.80713 4.17938 24231 ft 423 kts 110°
2026-05-04 13:48 50.79833 4.22391 24627 ft 425 kts 110°
2026-05-04 13:48 50.78949 4.26849 25050 ft 426 kts 110°
2026-05-04 13:49 50.78063 4.31322 25444 ft 427 kts 110°
2026-05-04 13:49 50.77173 4.35809 25825 ft 428 kts 110°
2026-05-04 13:49 50.76278 4.40304 26197 ft 430 kts 111°
2026-05-04 13:49 50.75378 4.44812 26554 ft 432 kts 111°
2026-05-04 13:50 50.74472 4.49340 26918 ft 433 kts 111°
2026-05-04 13:50 50.73560 4.53882 27271 ft 435 kts 111°
2026-05-04 13:50 50.72644 4.58436 27613 ft 436 kts 111°
2026-05-04 13:50 50.71725 4.63011 27948 ft 438 kts 111°
2026-05-04 13:51 50.70820 4.67613 28249 ft 440 kts 111°
2026-05-04 13:51 50.69923 4.72249 28514 ft 443 kts 111°
2026-05-04 13:51 50.69028 4.76909 28794 ft 445 kts 111°
2026-05-04 13:51 50.68127 4.81590 29075 ft 447 kts 111°
2026-05-04 13:52 50.66299 4.90994 29622 ft 451 kts 111°
2026-05-04 13:52 50.65364 4.95716 29887 ft 452 kts 112°
2026-05-04 13:52 50.64404 5.00446 30121 ft 453 kts 112°
2026-05-04 13:53 50.63426 5.05171 30313 ft 455 kts 112°
2026-05-04 13:53 50.62439 5.09908 30581 ft 455 kts 112°
2026-05-04 13:53 50.61453 5.14642 30829 ft 455 kts 113°
2026-05-04 13:54 50.59477 5.24138 31266 ft 458 kts 113°
2026-05-04 13:54 50.58501 5.28840 31585 ft 458 kts 113°
2026-05-04 13:54 50.56514 5.38359 32253 ft 457 kts 114°
2026-05-04 13:55 50.55522 5.43097 32550 ft 457 kts 114°
2026-05-04 13:55 50.53532 5.52580 33097 ft 456 kts 114°
2026-05-04 13:55 50.52535 5.57309 33378 ft 456 kts 114°
2026-05-04 13:56 50.51563 5.62054 33594 ft 459 kts 110°
2026-05-04 13:56 50.50881 5.66979 33833 ft 463 kts 107°
2026-05-04 13:56 50.49619 5.76884 34336 ft 462 kts 107°
2026-05-04 13:57 50.48981 5.81819 34577 ft 462 kts 107°
2026-05-04 13:57 50.48338 5.86752 34802 ft 461 kts 107°
2026-05-04 13:58 50.46394 6.01563 35001 ft 461 kts 107°
2026-05-04 13:58 50.44443 6.16341 35000 ft 461 kts 107°
2026-05-04 13:59 50.43123 6.26197 35001 ft 461 kts 107°
2026-05-04 14:00 50.41356 6.41050 34991 ft 465 kts 101°
2026-05-04 14:00 50.40208 6.56146 34968 ft 465 kts 101°
2026-05-04 14:01 50.39434 6.66206 34985 ft 465 kts 101°
2026-05-04 14:02 50.38262 6.81299 35004 ft 465 kts 101°
2026-05-04 14:02 50.37538 6.91377 35015 ft 466 kts 101°
2026-05-04 14:03 50.36834 7.01471 35003 ft 466 kts 100°
2026-05-04 14:03 50.36478 7.06501 34599 ft 464 kts 101°
2026-05-04 14:03 50.36116 7.11523 33882 ft 464 kts 101°
2026-05-04 14:03 50.35749 7.16551 33224 ft 464 kts 101°
2026-05-04 14:04 50.35007 7.26534 33023 ft 465 kts 101°
2026-05-04 14:04 50.34245 7.36607 33015 ft 466 kts 101°
2026-05-04 14:05 50.33093 7.51757 33005 ft 468 kts 101°
2026-05-04 14:06 50.32311 7.61880 33000 ft 469 kts 101°
2026-05-04 14:06 50.31519 7.72008 32996 ft 468 kts 101°
2026-05-04 14:07 50.30726 7.82108 32992 ft 468 kts 101°
2026-05-04 14:07 50.29916 7.92215 32973 ft 469 kts 101°
2026-05-04 14:08 50.29096 8.02347 32628 ft 470 kts 101°
2026-05-04 14:08 50.28681 8.07419 32364 ft 470 kts 101°
2026-05-04 14:08 50.28268 8.12486 32101 ft 471 kts 101°
2026-05-04 14:08 50.27855 8.17559 31842 ft 471 kts 101°
2026-05-04 14:09 50.27018 8.27722 31329 ft 472 kts 101°
2026-05-04 14:09 50.26592 8.32810 31006 ft 472 kts 102°
2026-05-04 14:10 50.25735 8.42873 30268 ft 468 kts 102°
2026-05-04 14:10 50.25306 8.47895 29865 ft 464 kts 102°
2026-05-04 14:10 50.24883 8.52877 29434 ft 461 kts 102°
2026-05-04 14:10 50.24461 8.57828 29018 ft 458 kts 102°
2026-05-04 14:11 50.24040 8.62736 28611 ft 455 kts 102°
2026-05-04 14:11 50.23193 8.72471 27804 ft 449 kts 102°
2026-05-04 14:11 50.22768 8.77288 27410 ft 446 kts 102°
2026-05-04 14:12 50.22346 8.82068 27017 ft 443 kts 102°
2026-05-04 14:12 50.21924 8.86822 26633 ft 441 kts 102°
2026-05-04 14:12 50.21082 8.96251 26058 ft 436 kts 102°
2026-05-04 14:13 50.20661 9.00931 25811 ft 435 kts 102°
2026-05-04 14:13 50.20240 9.05587 25568 ft 433 kts 102°
2026-05-04 14:13 50.19819 9.10233 25322 ft 431 kts 102°
2026-05-04 14:13 50.19401 9.14857 25078 ft 430 kts 102°
2026-05-04 14:14 50.18982 9.19470 24840 ft 428 kts 102°
2026-05-04 14:14 50.18192 9.28643 24356 ft 426 kts 97°
2026-05-04 14:14 50.18167 9.33275 24118 ft 427 kts 92°
2026-05-04 14:15 50.18294 9.42513 23652 ft 425 kts 92°
2026-05-04 14:15 50.18407 9.51681 23123 ft 421 kts 92°
2026-05-04 14:16 50.18517 9.60768 22585 ft 417 kts 92°
2026-05-04 14:16 50.18572 9.65292 22316 ft 415 kts 92°
2026-05-04 14:17 50.18667 9.74244 21777 ft 411 kts 92°
2026-05-04 14:17 50.18710 9.78695 21507 ft 409 kts 92°
2026-05-04 14:17 50.18788 9.87492 21006 ft 406 kts 92°
2026-05-04 14:18 50.18825 9.91885 20754 ft 404 kts 92°
2026-05-04 14:18 50.18128 10.00464 20251 ft 395 kts 109°
2026-05-04 14:19 50.15914 10.08148 19759 ft 385 kts 126°
2026-05-04 14:19 50.14319 10.11471 19521 ft 381 kts 134°
2026-05-04 14:19 50.12599 10.14595 19273 ft 379 kts 134°
2026-05-04 14:19 50.10890 10.17715 19037 ft 378 kts 134°
2026-05-04 14:20 50.09193 10.20818 18959 ft 376 kts 134°
2026-05-04 14:20 50.07602 10.24074 18977 ft 379 kts 126°
2026-05-04 14:20 50.06291 10.27653 18978 ft 382 kts 118°
2026-05-04 14:21 50.04030 10.35147 18977 ft 383 kts 118°
2026-05-04 14:21 50.02885 10.38883 18979 ft 383 kts 118°
2026-05-04 14:21 50.01737 10.42614 18977 ft 383 kts 119°
2026-05-04 14:21 50.00587 10.46339 18983 ft 383 kts 119°
2026-05-04 14:22 49.99436 10.50066 18980 ft 383 kts 119°
2026-05-04 14:22 49.98286 10.53796 18966 ft 382 kts 120°
2026-05-04 14:22 49.96926 10.57327 18979 ft 380 kts 130°
2026-05-04 14:22 49.95211 10.60413 18986 ft 376 kts 140°
2026-05-04 14:23 49.90976 10.64983 18986 ft 368 kts 158°
2026-05-04 14:23 49.88605 10.66416 18988 ft 365 kts 164°
2026-05-04 14:23 49.86196 10.67686 18986 ft 365 kts 164°
2026-05-04 14:24 49.84605 10.68525 18982 ft 365 kts 164°
2026-05-04 14:24 49.82194 10.69790 18980 ft 365 kts 166°
2026-05-04 14:24 49.79730 10.70656 18980 ft 362 kts 175°
2026-05-04 14:24 49.76419 10.71209 18981 ft 361 kts 176°
2026-05-04 14:25 49.73958 10.71618 18978 ft 348 kts 176°
2026-05-04 14:25 49.70084 10.72272 18980 ft 321 kts 176°
2026-05-04 14:25 49.67972 10.72964 18976 ft 312 kts 164°
2026-05-04 14:26 49.66034 10.74439 18983 ft 312 kts 149°
2026-05-04 14:26 49.64384 10.76656 18979 ft 317 kts 135°
2026-05-04 14:26 49.63143 10.79492 18977 ft 324 kts 120°
2026-05-04 14:26 49.62403 10.82800 18979 ft 330 kts 104°
2026-05-04 14:27 49.62060 10.86313 18971 ft 331 kts 102°
2026-05-04 14:27 49.61726 10.89826 18977 ft 331 kts 102°
2026-05-04 14:27 49.61385 10.93337 18977 ft 331 kts 102°
2026-05-04 14:27 49.61041 10.96853 18977 ft 331 kts 102°
2026-05-04 14:28 49.60701 11.00350 18697 ft 329 kts 102°
2026-05-04 14:28 49.60362 11.03827 18362 ft 327 kts 102°
2026-05-04 14:28 49.60023 11.07286 17881 ft 329 kts 102°
2026-05-04 14:28 49.59669 11.10858 16925 ft 340 kts 102°
2026-05-04 14:29 49.58945 11.18116 15157 ft 346 kts 102°
2026-05-04 14:29 49.58204 11.25584 13441 ft 351 kts 102°
2026-05-04 14:30 49.57844 11.29244 12515 ft 348 kts 102°
2026-05-04 14:30 49.57477 11.32965 11608 ft 346 kts 102°
2026-05-04 14:30 49.56747 11.40166 9901 ft 339 kts 102°
2026-05-04 14:31 49.56381 11.43740 9007 ft 336 kts 101°
2026-05-04 14:31 49.55661 11.50772 7230 ft 328 kts 100°
2026-05-04 14:32 49.54961 11.57632 5736 ft 314 kts 99°
2026-05-04 14:32 49.54363 11.60681 5612 ft 286 kts 120°
2026-05-04 14:32 49.53097 11.62937 5483 ft 277 kts 145°
2026-05-04 14:32 49.51370 11.64134 5354 ft 273 kts 171°
2026-05-04 14:33 49.49482 11.64136 5237 ft 273 kts 190°
2026-05-04 14:33 49.47619 11.63606 5105 ft 271 kts 199°
2026-05-04 14:33 49.46023 11.62150 4974 ft 268 kts 227°
2026-05-04 14:33 49.45057 11.59743 4878 ft 267 kts 253°
2026-05-04 14:34 49.44901 11.56993 4749 ft 253 kts 278°
2026-05-04 14:34 49.45164 11.54386 4618 ft 241 kts 280°
2026-05-04 14:34 49.45429 11.51898 4490 ft 232 kts 279°
2026-05-04 14:34 49.45674 11.49531 4359 ft 215 kts 279°
2026-05-04 14:35 49.45899 11.47325 4238 ft 204 kts 279°
2026-05-04 14:35 49.46117 11.45195 4120 ft 200 kts 280°
2026-05-04 14:35 49.46327 11.43133 4058 ft 185 kts 280°
2026-05-04 14:35 49.46513 11.41295 4009 ft 161 kts 280°
2026-05-04 14:36 49.46678 11.39668 3994 ft 149 kts 280°